Radiation Dose at Monitoring Post of Fukushima Daini Nuclear Power Station
Date,Time,MP-1(microSv/h),MP-2(microSv/h),MP-3(microSv/h),MP-4(microSv/h),MP-5(microSv/h),MP-6(microSv/h),MP-7(microSv/h),Wind Direction,Wind Velocity(m/s),Rain
2023/04/11,00:00,0.153,0.136,0.215,0.212,0.213,0.121,0.078,south-southwest,1.0,No
2023/04/11,00:10,0.153,0.137,0.215,0.212,0.213,0.121,0.077,west-southwest,1.5,No
2023/04/11,00:20,0.152,0.136,0.215,0.211,0.213,0.120,0.078,west-southwest,1.0,No
2023/04/11,00:30,0.154,0.136,0.216,0.211,0.212,0.121,0.078,west-southwest,0.8,No
2023/04/11,00:40,0.153,0.136,0.215,0.211,0.214,0.121,0.078,-,CALM,No
2023/04/11,00:50,0.152,0.136,0.216,0.211,0.213,0.121,0.077,south-southwest,0.9,No
2023/04/11,01:00,0.153,0.136,0.215,0.212,0.212,0.121,0.077,south-southwest,1.0,No
2023/04/11,01:10,0.153,0.137,0.216,0.211,0.213,0.121,0.078,south-southwest,1.5,No
2023/04/11,01:20,0.152,0.137,0.216,0.211,0.212,0.121,0.078,southwest,1.5,No
2023/04/11,01:30,0.152,0.136,0.216,0.212,0.213,0.120,0.078,south-southwest,1.5,No
2023/04/11,01:40,0.153,0.137,0.215,0.210,0.213,0.121,0.077,south,1.6,No
2023/04/11,01:50,0.154,0.136,0.216,0.211,0.212,0.121,0.078,south-southwest,0.8,No
2023/04/11,02:00,0.153,0.137,0.215,0.212,0.213,0.121,0.077,west,0.6,No
2023/04/11,02:10,0.153,0.136,0.215,0.211,0.212,0.121,0.077,southwest,0.7,No
2023/04/11,02:20,0.153,0.137,0.215,0.212,0.212,0.120,0.078,west-southwest,0.6,No
2023/04/11,02:30,0.153,0.136,0.215,0.213,0.213,0.121,0.078,west,1.3,No
2023/04/11,02:40,0.152,0.136,0.215,0.212,0.212,0.121,0.078,west,1.1,No
2023/04/11,02:50,0.154,0.137,0.215,0.210,0.212,0.120,0.078,-,CALM,No
2023/04/11,03:00,0.152,0.135,0.216,0.212,0.212,0.121,0.077,-,CALM,No
2023/04/11,03:10,0.152,0.136,0.215,0.212,0.212,0.121,0.077,northeast,0.7,No
2023/04/11,03:20,0.153,0.137,0.216,0.211,0.213,0.121,0.078,northeast,0.7,No
2023/04/11,03:30,0.153,0.137,0.216,0.212,0.212,0.121,0.078,-,CALM,No
2023/04/11,03:40,0.153,0.136,0.216,0.212,0.212,0.121,0.078,-,CALM,No
2023/04/11,03:50,0.153,0.137,0.217,0.211,0.213,0.120,0.077,-,CALM,No
2023/04/11,04:00,0.152,0.136,0.216,0.211,0.212,0.121,0.077,-,CALM,No
2023/04/11,04:10,0.153,0.136,0.215,0.212,0.211,0.121,0.078,-,CALM,No
2023/04/11,04:20,0.153,0.137,0.216,0.212,0.213,0.122,0.077,-,CALM,No
2023/04/11,04:30,0.152,0.136,0.215,0.212,0.211,0.121,0.077,-,CALM,No
2023/04/11,04:40,0.153,0.136,0.216,0.211,0.213,0.121,0.077,west-southwest,1.0,No
2023/04/11,04:50,0.153,0.136,0.216,0.211,0.212,0.120,0.077,west-southwest,1.3,No
2023/04/11,05:00,0.152,0.136,0.215,0.211,0.211,0.120,0.077,west,1.4,No
2023/04/11,05:10,0.153,0.136,0.216,0.211,0.212,0.120,0.077,west,0.7,No
2023/04/11,05:20,0.153,0.136,0.215,0.211,0.212,0.121,0.077,-,CALM,No
2023/04/11,05:30,0.152,0.137,0.215,0.210,0.213,0.121,0.077,-,CALM,No
2023/04/11,05:40,0.152,0.135,0.215,0.212,0.211,0.120,0.076,east,0.7,No
2023/04/11,05:50,0.152,0.135,0.215,0.211,0.212,0.121,0.077,southeast,0.7,No
2023/04/11,06:00,0.153,0.136,0.216,0.210,0.211,0.120,0.077,-,CALM,No
2023/04/11,06:10,0.153,0.135,0.215,0.211,0.210,0.120,0.077,southwest,1.5,No
2023/04/11,06:20,-,-,-,-,-,-,-,-,-,-
2023/04/11,06:30,0.152,0.137,0.215,0.210,0.212,0.120,0.077,south-southwest,1.3,No
2023/04/11,06:40,0.152,0.136,0.215,0.211,0.211,0.121,0.077,south-southwest,1.7,No
2023/04/11,06:50,0.153,0.135,0.215,0.210,0.212,0.121,0.077,south-southwest,2.1,No
2023/04/11,07:00,0.152,0.136,0.215,0.211,0.211,0.121,0.077,southwest,2.3,No
2023/04/11,07:10,0.152,0.136,0.214,0.211,0.212,0.121,0.076,southwest,2.2,No
2023/04/11,07:20,0.152,0.136,0.213,0.211,0.212,0.120,0.077,southwest,2.4,No
2023/04/11,07:30,0.153,0.136,0.214,0.210,0.212,0.121,0.077,south-southwest,2.3,No
2023/04/11,07:40,0.152,0.135,0.213,0.211,0.212,0.121,0.077,south,2.6,No
2023/04/11,07:50,0.153,0.136,0.216,0.209,0.213,0.121,0.078,south-southeast,2.1,No
2023/04/11,08:00,0.151,0.135,0.212,0.210,0.212,0.122,0.078,south,2.7,No
2023/04/11,08:10,0.153,0.135,0.214,0.209,0.214,0.121,0.077,south,3.0,No
2023/04/11,08:20,0.152,0.135,0.215,0.210,0.213,0.120,0.077,south,3.0,No
2023/04/11,08:30,0.152,0.136,0.213,0.210,0.211,0.121,0.078,south-southeast,3.0,No
2023/04/11,08:40,0.151,0.135,0.214,0.207,0.212,0.121,0.077,south,4.1,No
2023/04/11,08:50,0.150,0.137,0.215,0.211,0.211,0.120,0.077,south,4.1,No
2023/04/11,09:00,0.153,0.136,0.214,0.211,0.212,0.120,0.077,south-southeast,4.3,No
2023/04/11,09:10,0.151,0.135,0.213,0.209,0.213,0.121,0.077,south-southeast,4.5,No
2023/04/11,09:20,0.152,0.137,0.216,0.212,0.211,0.120,0.077,south-southeast,4.5,No
2023/04/11,09:30,0.153,0.135,0.216,0.212,0.213,0.121,0.077,south,3.7,No
2023/04/11,09:40,0.152,0.135,0.214,0.210,0.213,0.120,0.077,south,4.0,No
2023/04/11,09:50,0.151,0.136,0.213,0.209,0.210,0.120,0.077,south-southeast,3.6,No
2023/04/11,10:00,0.153,0.137,0.211,0.212,0.211,0.119,0.077,south-southeast,4.1,No
2023/04/11,10:10,0.152,0.135,0.215,0.211,0.214,0.120,0.077,south,4.7,No
2023/04/11,10:20,0.151,0.136,0.216,0.210,0.213,0.120,0.077,south-southeast,4.8,No
2023/04/11,10:30,0.151,0.135,0.215,0.209,0.210,0.120,0.078,south-southeast,5.3,No
2023/04/11,10:40,0.152,0.135,0.213,0.210,0.210,0.120,0.077,south-southeast,7.2,No
2023/04/11,10:50,0.152,0.135,0.212,0.212,0.213,0.120,0.077,south-southeast,7.9,No
2023/04/11,11:00,0.151,0.136,0.217,0.211,0.212,0.121,0.077,south-southeast,7.6,No
2023/04/11,11:10,0.153,0.137,0.216,0.210,0.210,0.122,0.078,south-southeast,8.3,No
2023/04/11,11:20,0.153,0.135,0.214,0.213,0.211,0.121,0.077,south-southeast,7.4,No
2023/04/11,11:30,0.152,0.137,0.213,0.211,0.213,0.121,0.076,south-southeast,7.6,No
2023/04/11,11:40,0.151,0.137,0.215,0.211,0.214,0.121,0.078,south-southeast,7.8,No
2023/04/11,11:50,0.151,0.135,0.217,0.209,0.212,0.121,0.077,south-southeast,9.2,No
2023/04/11,12:00,0.152,0.135,0.216,0.210,0.209,0.121,0.077,south-southeast,8.2,No
2023/04/11,12:10,0.152,0.138,0.215,0.212,0.209,0.121,0.078,south-southeast,8.2,No
2023/04/11,12:20,0.151,0.136,0.214,0.211,0.210,0.121,0.077,south-southeast,8.1,No
2023/04/11,12:30,0.151,0.135,0.213,0.209,0.213,0.121,0.077,south-southeast,8.8,No
2023/04/11,12:40,0.150,0.134,0.213,0.210,0.213,0.121,0.077,south-southeast,9.0,No
2023/04/11,12:50,0.150,0.137,0.213,0.212,0.211,0.121,0.077,south-southeast,10.6,No
2023/04/11,13:00,0.151,0.137,0.214,0.213,0.210,0.121,0.077,south-southeast,11.7,No
2023/04/11,13:10,0.151,0.136,0.215,0.211,0.210,0.121,0.077,south-southeast,11.2,No
2023/04/11,13:20,0.152,0.135,0.218,0.210,0.212,0.120,0.077,south-southeast,11.2,No
2023/04/11,13:30,0.154,0.135,0.216,0.210,0.213,0.121,0.077,south,11.8,No
2023/04/11,13:40,0.153,0.137,0.216,0.212,0.212,0.121,0.077,south,13.1,No
2023/04/11,13:50,0.153,0.137,0.216,0.212,0.211,0.121,0.078,south-southeast,12.2,No
2023/04/11,14:00,0.152,0.135,0.214,0.212,0.210,0.120,0.077,south-southeast,11.7,No
2023/04/11,14:10,0.150,0.135,0.216,0.211,0.211,0.121,0.076,south-southeast,10.9,No
2023/04/11,14:20,0.153,0.136,0.217,0.214,0.213,0.121,0.078,south,12.2,No
2023/04/11,14:30,0.154,0.136,0.215,0.212,0.213,0.121,0.077,south-southeast,11.2,No
2023/04/11,14:40,0.152,0.136,0.215,0.210,0.211,0.119,0.077,south-southeast,10.1,No
2023/04/11,14:50,0.150,0.136,0.216,0.213,0.211,0.121,0.078,south-southeast,9.6,No
2023/04/11,15:00,0.151,0.138,0.217,0.213,0.213,0.121,0.076,south-southeast,8.5,No
2023/04/11,15:10,0.152,0.136,0.215,0.210,0.211,0.121,0.078,south-southeast,7.0,No
2023/04/11,15:20,0.153,0.137,0.216,0.214,0.210,0.121,0.076,south-southeast,10.1,No
2023/04/11,15:30,0.150,0.136,0.217,0.211,0.214,0.120,0.077,south-southeast,10.6,No
2023/04/11,15:40,0.153,0.136,0.216,0.213,0.213,0.120,0.077,south-southeast,10.0,No
2023/04/11,15:50,0.154,0.137,0.217,0.211,0.211,0.121,0.077,south-southeast,10.1,No
2023/04/11,16:00,0.151,0.135,0.215,0.214,0.213,0.121,0.077,south-southeast,10.1,No
2023/04/11,16:10,0.153,0.136,0.217,0.211,0.211,0.120,0.077,south-southeast,10.3,No
2023/04/11,16:20,0.152,0.137,0.216,0.212,0.213,0.120,0.077,south-southeast,8.1,No
2023/04/11,16:30,0.153,0.137,0.217,0.212,0.213,0.121,0.077,south,9.2,No
2023/04/11,16:40,0.153,0.136,0.216,0.213,0.211,0.120,0.077,south,8.6,No
2023/04/11,16:50,0.152,0.137,0.216,0.212,0.214,0.120,0.077,south,7.1,No
2023/04/11,17:00,0.153,0.136,0.215,0.212,0.210,0.121,0.077,south,5.9,No
2023/04/11,17:10,0.152,0.136,0.217,0.213,0.214,0.120,0.077,south-southwest,6.4,No
2023/04/11,17:20,0.153,0.135,0.215,0.212,0.213,0.121,0.077,south,8.8,No
2023/04/11,17:30,0.152,0.136,0.217,0.213,0.212,0.120,0.077,south,8.5,No
2023/04/11,17:40,0.152,0.136,0.215,0.210,0.214,0.121,0.077,south,8.6,No
2023/04/11,17:50,0.153,0.136,0.217,0.213,0.210,0.121,0.077,south,7.7,No
2023/04/11,18:00,0.152,0.137,0.215,0.211,0.213,0.121,0.077,south,6.4,No
2023/04/11,18:10,0.152,0.136,0.217,0.213,0.212,0.121,0.077,south,6.7,No
2023/04/11,18:20,0.153,0.136,0.216,0.212,0.215,0.120,0.077,south,6.9,No
2023/04/11,18:30,0.153,0.136,0.217,0.214,0.212,0.121,0.077,south,7.9,No
2023/04/11,18:40,0.153,0.136,0.216,0.212,0.213,0.120,0.077,south-southeast,7.6,No
2023/04/11,18:50,0.151,0.136,0.216,0.213,0.211,0.121,0.077,south,8.5,No
2023/04/11,19:00,0.152,0.137,0.216,0.212,0.214,0.121,0.076,south,8.5,No
2023/04/11,19:10,0.152,0.136,0.215,0.212,0.211,0.121,0.077,south,7.7,No
2023/04/11,19:20,0.152,0.137,0.217,0.212,0.214,0.120,0.076,south,6.8,No
2023/04/11,19:30,0.152,0.136,0.215,0.213,0.211,0.121,0.077,south,5.4,No
2023/04/11,19:40,0.153,0.137,0.217,0.213,0.213,0.120,0.076,south,5.1,No
2023/04/11,19:50,0.152,0.136,0.215,0.213,0.211,0.121,0.077,south,4.9,No
2023/04/11,20:00,0.153,0.136,0.216,0.213,0.213,0.119,0.077,south,5.7,No
2023/04/11,20:10,0.153,0.137,0.215,0.211,0.211,0.121,0.077,south,6.2,No
2023/04/11,20:20,0.152,0.136,0.216,0.213,0.213,0.120,0.076,south-southeast,7.0,No
2023/04/11,20:30,0.152,0.136,0.217,0.211,0.212,0.121,0.077,south,6.5,No
2023/04/11,20:40,0.153,0.136,0.216,0.212,0.214,0.120,0.077,south,7.4,No
2023/04/11,20:50,0.152,0.135,0.217,0.211,0.211,0.121,0.077,south,7.9,No
2023/04/11,21:00,0.154,0.136,0.216,0.212,0.212,0.121,0.078,south,7.9,No
2023/04/11,21:10,0.152,0.136,0.217,0.211,0.212,0.121,0.077,south,8.7,No
2023/04/11,21:20,0.153,0.136,0.217,0.213,0.211,0.120,0.077,south,7.8,No
2023/04/11,21:30,0.152,0.137,0.216,0.212,0.213,0.121,0.077,south,6.7,No
2023/04/11,21:40,0.152,0.136,0.217,0.212,0.213,0.121,0.078,south,6.0,No
2023/04/11,21:50,0.151,0.137,0.217,0.212,0.214,0.121,0.077,south,6.8,No
2023/04/11,22:00,0.152,0.137,0.217,0.211,0.211,0.120,0.077,south-southeast,6.9,No
2023/04/11,22:10,0.153,0.137,0.216,0.213,0.214,0.121,0.076,south,4.9,No
2023/04/11,22:20,0.153,0.136,0.216,0.212,0.210,0.121,0.077,south,6.4,No
2023/04/11,22:30,0.153,0.136,0.218,0.215,0.213,0.120,0.076,south-southwest,5.2,No
2023/04/11,22:40,0.153,0.136,0.216,0.212,0.212,0.121,0.077,south,7.7,No
2023/04/11,22:50,0.152,0.136,0.215,0.213,0.212,0.121,0.077,south,6.5,No
2023/04/11,23:00,0.152,0.136,0.217,0.210,0.211,0.120,0.077,south-southwest,8.5,No
2023/04/11,23:10,0.152,0.135,0.215,0.211,0.213,0.119,0.077,south-southwest,7.4,No
2023/04/11,23:20,0.152,0.136,0.217,0.211,0.213,0.121,0.077,south-southwest,7.7,No
2023/04/11,23:30,0.153,0.136,0.216,0.212,0.213,0.120,0.077,south-southwest,7.3,No
2023/04/11,23:40,0.153,0.135,0.216,0.213,0.213,0.121,0.076,south-southwest,7.7,No
2023/04/11,23:50,0.153,0.137,0.216,0.211,0.211,0.121,0.076,south-southwest,7.0,No
